Time,TemperatureF,DewpointF,PressureIn,WindDirection,WindDirectionDegrees,WindSpeedMPH,WindSpeedGustMPH,Humidity,HourlyPrecipIn,Conditions,Clouds,dailyrainin,SoftwareType,DateUTC
2013-03-17 00:04:00,60.6,25.6,29.82,NNW,338,0.0,0.0,26,0.00,,---,0.00,VWS V14.01,2013-03-17 07:04:00,
2013-03-17 00:09:00,60.4,25.4,29.82,NNW,338,0.0,0.0,26,0.00,,---,0.00,VWS V14.01,2013-03-17 07:09:00,
2013-03-17 00:14:00,60.1,26.0,29.82,NNW,338,0.0,0.0,27,0.00,,---,0.00,VWS V14.01,2013-03-17 07:14:00,
2013-03-17 00:19:00,60.1,26.0,29.82,North,0,0.0,0.0,27,0.00,,---,0.00,VWS V14.01,2013-03-17 07:19:00,
2013-03-17 00:24:00,60.4,26.3,29.82,NW,315,0.0,0.0,27,0.00,,---,0.00,VWS V14.01,2013-03-17 07:24:00,
2013-03-17 00:29:00,60.1,25.1,29.82,NNW,338,0.0,0.0,26,0.00,,---,0.00,VWS V14.01,2013-03-17 07:29:00,
2013-03-17 00:34:00,59.9,25.9,29.82,NNW,338,0.0,0.0,27,0.00,,---,0.00,VWS V14.01,2013-03-17 07:34:00,
2013-03-17 00:39:00,59.9,25.0,29.82,NNW,338,0.0,0.0,26,0.00,,---,0.00,VWS V14.01,2013-03-17 07:39:00,
2013-03-17 00:44:00,59.5,24.6,29.82,NNW,338,0.0,0.0,26,0.00,,---,0.00,VWS V14.01,2013-03-17 07:44:00,
2013-03-17 00:49:00,59.2,24.3,29.82,NNW,338,0.0,0.0,26,0.00,,---,0.00,VWS V14.01,2013-03-17 07:49:00,
2013-03-17 00:54:00,58.8,24.9,29.82,NNW,338,0.0,0.0,27,0.00,,---,0.00,VWS V14.01,2013-03-17 07:54:00,
2013-03-17 00:59:00,58.8,24.9,29.82,NNW,338,0.0,0.0,27,0.00,,---,0.00,VWS V14.01,2013-03-17 07:59:00,
2013-03-17 01:04:00,59.0,25.1,29.82,NNW,338,0.0,0.0,27,0.00,,---,0.00,VWS V14.01,2013-03-17 08:04:00,
2013-03-17 01:09:00,59.2,25.2,29.82,North,0,0.0,0.0,27,0.00,,---,0.00,VWS V14.01,2013-03-17 08:09:00,
2013-03-17 01:14:00,58.8,24.9,29.82,NNW,338,0.0,0.0,27,0.00,,---,0.00,VWS V14.01,2013-03-17 08:14:00,
2013-03-17 01:19:00,58.5,24.6,29.82,NNW,338,0.0,0.0,27,0.00,,---,0.00,VWS V14.01,2013-03-17 08:19:00,
2013-03-17 01:24:00,58.5,24.6,29.82,NW,315,0.0,0.0,27,0.00,,---,0.00,VWS V14.01,2013-03-17 08:24:00,
2013-03-17 01:29:00,58.3,24.5,29.82,NW,315,0.0,0.0,27,0.00,,---,0.00,VWS V14.01,2013-03-17 08:29:00,
2013-03-17 01:34:00,58.1,24.3,29.82,NNW,338,0.0,0.0,27,0.00,,---,0.00,VWS V14.01,2013-03-17 08:34:00,
2013-03-17 01:39:00,58.1,23.4,29.82,NNW,338,0.0,0.0,26,0.00,,---,0.00,VWS V14.01,2013-03-17 08:39:00,
2013-03-17 01:44:00,58.1,23.4,29.82,South,180,0.0,0.0,26,0.00,,---,0.00,VWS V14.01,2013-03-17 08:44:00,
2013-03-17 01:49:00,57.6,23.9,29.82,South,180,0.0,0.0,27,0.00,,---,0.00,VWS V14.01,2013-03-17 08:49:00,
2013-03-17 01:54:00,57.2,23.5,29.82,NW,315,0.0,0.0,27,0.00,,---,0.00,VWS V14.01,2013-03-17 08:54:00,
2013-03-17 01:59:00,57.6,23.9,29.82,NW,315,0.0,0.0,27,0.00,,---,0.00,VWS V14.01,2013-03-17 08:59:00,
2013-03-17 02:04:00,57.4,23.7,29.82,NNW,338,0.0,0.0,27,0.00,,---,0.00,VWS V14.01,2013-03-17 09:04:00,
2013-03-17 02:10:00,57.2,23.5,29.82,NNW,338,0.0,0.0,27,0.00,,---,0.00,VWS V14.01,2013-03-17 09:10:00,
2013-03-17 02:15:00,57.0,23.4,29.82,NNW,338,0.0,0.0,27,0.00,,---,0.00,VWS V14.01,2013-03-17 09:15:00,
2013-03-17 02:20:00,56.7,23.1,29.82,NW,315,0.0,0.0,27,0.00,,---,0.00,VWS V14.01,2013-03-17 09:20:00,
2013-03-17 02:25:00,56.5,22.9,29.82,NNW,338,0.0,0.0,27,0.00,,---,0.00,VWS V14.01,2013-03-17 09:25:00,
2013-03-17 02:30:00,56.3,22.8,29.82,NNW,338,0.0,0.0,27,0.00,,---,0.00,VWS V14.01,2013-03-17 09:30:00,
2013-03-17 02:35:00,56.5,22.9,29.82,NW,315,0.0,0.0,27,0.00,,---,0.00,VWS V14.01,2013-03-17 09:35:00,
2013-03-17 02:40:00,56.3,22.8,29.82,NW,315,0.0,0.0,27,0.00,,---,0.00,VWS V14.01,2013-03-17 09:40:00,
2013-03-17 02:45:00,56.1,23.5,29.82,NNW,338,0.0,0.0,28,0.00,,---,0.00,VWS V14.01,2013-03-17 09:45:00,
2013-03-17 02:50:00,56.1,23.5,29.82,NW,315,0.0,0.0,28,0.00,,---,0.00,VWS V14.01,2013-03-17 09:50:00,
2013-03-17 02:55:00,56.3,22.8,29.82,NNW,338,0.0,0.0,27,0.00,,---,0.00,VWS V14.01,2013-03-17 09:55:00,
2013-03-17 03:00:00,56.7,23.1,29.82,NW,315,0.0,0.0,27,0.00,,---,0.00,VWS V14.01,2013-03-17 10:00:00,
2013-03-17 03:05:00,56.8,23.2,29.82,NW,315,0.0,0.0,27,0.00,,---,0.00,VWS V14.01,2013-03-17 10:05:00,
2013-03-17 03:10:00,56.7,23.1,29.82,NNW,338,0.0,0.0,27,0.00,,---,0.00,VWS V14.01,2013-03-17 10:10:00,
2013-03-17 03:16:00,56.7,23.1,29.82,NW,315,0.0,0.0,27,0.00,,---,0.00,VWS V14.01,2013-03-17 10:16:00,
2013-03-17 03:21:00,56.7,23.1,29.82,NNW,338,0.0,0.0,27,0.00,,---,0.00,VWS V14.01,2013-03-17 10:21:00,
2013-03-17 03:26:00,56.3,22.8,29.82,NNW,338,0.0,0.0,27,0.00,,---,0.00,VWS V14.01,2013-03-17 10:26:00,
2013-03-17 03:31:00,56.1,22.6,29.79,NNW,338,0.0,0.0,27,0.00,,---,0.00,VWS V14.01,2013-03-17 10:31:00,
2013-03-17 03:36:00,55.9,22.5,29.79,NNW,338,0.0,0.0,27,0.00,,---,0.00,VWS V14.01,2013-03-17 10:36:00,
2013-03-17 03:41:00,55.9,22.5,29.79,NNW,338,0.0,0.0,27,0.00,,---,0.00,VWS V14.01,2013-03-17 10:41:00,
2013-03-17 03:46:00,55.9,22.5,29.79,NNW,338,0.0,0.0,27,0.00,,---,0.00,VWS V14.01,2013-03-17 10:46:00,
2013-03-17 03:51:00,55.6,22.1,29.79,NW,315,0.0,0.0,27,0.00,,---,0.00,VWS V14.01,2013-03-17 10:51:00,
2013-03-17 03:56:00,55.4,22.0,29.79,NNW,338,0.0,0.0,27,0.00,,---,0.00,VWS V14.01,2013-03-17 10:56:00,
2013-03-17 04:02:00,55.2,22.7,29.79,NW,315,0.0,0.0,28,0.00,,---,0.00,VWS V14.01,2013-03-17 11:02:00,
2013-03-17 04:07:00,55.4,22.0,29.79,NNW,338,0.0,0.0,27,0.00,,---,0.00,VWS V14.01,2013-03-17 11:07:00,
2013-03-17 04:12:00,55.2,22.7,29.79,NW,315,0.0,0.0,28,0.00,,---,0.00,VWS V14.01,2013-03-17 11:12:00,
2013-03-17 04:17:00,55.2,22.7,29.79,NNW,338,0.0,0.0,28,0.00,,---,0.00,VWS V14.01,2013-03-17 11:17:00,
2013-03-17 04:22:00,55.4,22.0,29.79,NNW,338,0.0,0.0,27,0.00,,---,0.00,VWS V14.01,2013-03-17 11:22:00,
2013-03-17 04:27:00,55.4,22.0,29.79,NW,315,0.0,0.0,27,0.00,,---,0.00,VWS V14.01,2013-03-17 11:27:00,
2013-03-17 04:32:00,55.0,22.5,29.79,NW,315,0.0,0.0,28,0.00,,---,0.00,VWS V14.01,2013-03-17 11:32:00,
2013-03-17 04:37:00,54.9,22.4,29.79,NNW,338,0.0,0.0,28,0.00,,---,0.00,VWS V14.01,2013-03-17 11:37:00,
2013-03-17 04:42:00,54.7,22.2,29.79,NNW,338,0.0,0.0,28,0.00,,---,0.00,VWS V14.01,2013-03-17 11:42:00,
2013-03-17 04:47:00,54.7,22.2,29.79,NNW,338,0.0,0.0,28,0.00,,---,0.00,VWS V14.01,2013-03-17 11:47:00,
2013-03-17 04:53:00,54.9,22.4,29.79,NNW,338,0.0,0.0,28,0.00,,---,0.00,VWS V14.01,2013-03-17 11:53:00,
2013-03-17 04:58:00,54.7,22.2,29.79,NNW,338,0.0,0.0,28,0.00,,---,0.00,VWS V14.01,2013-03-17 11:58:00,
2013-03-17 05:03:00,54.5,22.1,29.79,NW,315,0.0,0.0,28,0.00,,---,0.00,VWS V14.01,2013-03-17 12:03:00,
2013-03-17 05:08:00,54.5,22.9,29.79,North,0,0.0,0.0,29,0.00,,---,0.00,VWS V14.01,2013-03-17 12:08:00,
2013-03-17 05:13:00,54.3,22.8,29.79,NW,315,0.0,0.0,29,0.00,,---,0.00,VWS V14.01,2013-03-17 12:13:00,
2013-03-17 05:18:00,54.1,22.6,29.82,NNW,338,0.0,0.0,29,0.00,,---,0.00,VWS V14.01,2013-03-17 12:18:00,
2013-03-17 05:23:00,54.3,22.8,29.82,NW,315,0.0,0.0,29,0.00,,---,0.00,VWS V14.01,2013-03-17 12:23:00,
2013-03-17 05:28:00,54.7,23.1,29.82,NNW,338,0.0,0.0,29,0.00,,---,0.00,VWS V14.01,2013-03-17 12:28:00,
2013-03-17 05:33:00,54.9,23.2,29.82,NNW,338,0.0,0.0,29,0.00,,---,0.00,VWS V14.01,2013-03-17 12:33:00,
2013-03-17 05:38:00,54.9,23.2,29.82,NNW,338,0.0,0.0,29,0.00,,---,0.00,VWS V14.01,2013-03-17 12:38:00,
2013-03-17 05:43:00,55.0,23.4,29.82,NNW,338,0.0,0.0,29,0.00,,---,0.00,VWS V14.01,2013-03-17 12:43:00,
2013-03-17 05:48:00,55.0,23.4,29.82,NW,315,0.0,0.0,29,0.00,,---,0.00,VWS V14.01,2013-03-17 12:48:00,
2013-03-17 05:54:00,55.0,22.5,29.82,NW,315,0.0,0.0,28,0.00,,---,0.00,VWS V14.01,2013-03-17 12:54:00,
2013-03-17 05:59:00,54.9,22.4,29.82,NW,315,0.0,0.0,28,0.00,,---,0.00,VWS V14.01,2013-03-17 12:59:00,
2013-03-17 06:04:00,54.7,22.2,29.82,NW,315,0.0,0.0,28,0.00,,---,0.00,VWS V14.01,2013-03-17 13:04:00,
2013-03-17 06:09:00,54.5,22.1,29.82,NW,315,0.0,0.0,28,0.00,,---,0.00,VWS V14.01,2013-03-17 13:09:00,
2013-03-17 06:14:00,54.3,21.9,29.82,NW,315,0.0,0.0,28,0.00,,---,0.00,VWS V14.01,2013-03-17 13:14:00,
2013-03-17 06:19:00,54.1,21.8,29.82,NNW,338,0.0,0.0,28,0.00,,---,0.00,VWS V14.01,2013-03-17 13:19:00,
2013-03-17 06:24:00,54.1,22.6,29.82,NW,315,0.0,0.0,29,0.00,,---,0.00,VWS V14.01,2013-03-17 13:24:00,
2013-03-17 06:29:00,54.0,22.5,29.82,North,0,0.0,0.0,29,0.00,,---,0.00,VWS V14.01,2013-03-17 13:29:00,
2013-03-17 06:34:00,53.6,22.1,29.82,NW,315,0.0,0.0,29,0.00,,---,0.00,VWS V14.01,2013-03-17 13:34:00,
2013-03-17 06:39:00,53.6,22.1,29.82,ENE,68,0.0,0.0,29,0.00,,---,0.00,VWS V14.01,2013-03-17 13:39:00,
2013-03-17 06:44:00,53.1,21.7,29.85,NW,315,0.0,0.0,29,0.00,,---,0.00,VWS V14.01,2013-03-17 13:44:00,
2013-03-17 06:49:00,53.2,22.6,29.85,NNW,338,0.0,0.0,30,0.00,,---,0.00,VWS V14.01,2013-03-17 13:49:00,
2013-03-17 06:55:00,53.1,22.5,29.85,NNW,338,0.0,0.0,30,0.00,,---,0.00,VWS V14.01,2013-03-17 13:55:00,
2013-03-17 07:00:00,53.1,22.5,29.85,NNW,338,0.0,0.0,30,0.00,,---,0.00,VWS V14.01,2013-03-17 14:00:00,
2013-03-17 07:05:00,53.6,22.9,29.85,NNW,338,0.0,0.0,30,0.00,,---,0.00,VWS V14.01,2013-03-17 14:05:00,
2013-03-17 07:10:00,54.0,23.2,29.85,NNW,338,0.0,0.0,30,0.00,,---,0.00,VWS V14.01,2013-03-17 14:10:00,
2013-03-17 07:15:00,54.3,23.6,29.85,WSW,248,0.0,0.0,30,0.00,,---,0.00,VWS V14.01,2013-03-17 14:15:00,
2013-03-17 07:20:00,54.7,23.9,29.85,WSW,248,0.0,0.0,30,0.00,,---,0.00,VWS V14.01,2013-03-17 14:20:00,
2013-03-17 07:25:00,55.4,23.7,29.85,ENE,68,0.0,0.0,29,0.00,,---,0.00,VWS V14.01,2013-03-17 14:25:00,
2013-03-17 07:30:00,56.1,24.3,29.85,NNE,22,0.0,0.0,29,0.00,,---,0.00,VWS V14.01,2013-03-17 14:30:00,
2013-03-17 07:35:00,56.7,24.8,29.85,North,0,0.0,0.0,29,0.00,,---,0.00,VWS V14.01,2013-03-17 14:35:00,
2013-03-17 07:40:00,57.6,25.6,29.85,North,0,0.0,0.0,29,0.00,,---,0.00,VWS V14.01,2013-03-17 14:40:00,
2013-03-17 07:45:00,58.5,26.3,29.85,WSW,248,0.0,0.0,29,0.00,,---,0.00,VWS V14.01,2013-03-17 14:45:00,
2013-03-17 07:50:00,59.7,27.4,29.85,WSW,248,0.0,0.0,29,0.00,,---,0.00,VWS V14.01,2013-03-17 14:50:00,
2013-03-17 07:55:00,60.8,27.5,29.85,SSE,158,0.0,0.0,28,0.00,,---,0.00,VWS V14.01,2013-03-17 14:55:00,
2013-03-17 08:00:00,61.7,29.1,29.85,South,180,0.0,0.0,29,0.00,,---,0.00,VWS V14.01,2013-03-17 15:00:00,
2013-03-17 08:05:00,63.5,29.8,29.85,East,90,0.0,0.0,28,0.00,,---,0.00,VWS V14.01,2013-03-17 15:05:00,
2013-03-17 08:10:00,65.1,30.3,29.85,NNW,338,0.0,0.0,27,0.00,,---,0.00,VWS V14.01,2013-03-17 15:10:00,
2013-03-17 08:15:00,66.9,31.0,29.85,SW,225,0.0,0.0,26,0.00,,---,0.00,VWS V14.01,2013-03-17 15:15:00,
2013-03-17 08:21:00,67.5,31.4,29.85,WSW,248,0.0,0.0,26,0.00,,---,0.00,VWS V14.01,2013-03-17 15:21:00,
2013-03-17 08:26:00,68.4,32.2,29.85,South,180,0.0,0.0,26,0.00,,---,0.00,VWS V14.01,2013-03-17 15:26:00,
2013-03-17 08:31:00,69.3,32.9,29.85,SW,225,0.0,0.0,26,0.00,,---,0.00,VWS V14.01,2013-03-17 15:31:00,
2013-03-17 08:36:00,69.6,32.3,29.85,SW,225,0.0,0.0,25,0.00,,---,0.00,VWS V14.01,2013-03-17 15:36:00,
2013-03-17 08:41:00,69.6,32.3,29.85,SW,225,0.0,0.0,25,0.00,,---,0.00,VWS V14.01,2013-03-17 15:41:00,
2013-03-17 08:46:00,69.4,31.1,29.88,SW,225,0.0,0.0,24,0.00,,---,0.00,VWS V14.01,2013-03-17 15:46:00,
2013-03-17 08:51:00,69.8,31.4,29.88,South,180,0.0,0.0,24,0.00,,---,0.00,VWS V14.01,2013-03-17 15:51:00,
2013-03-17 08:56:00,70.2,31.7,29.88,SW,225,0.0,0.0,24,0.00,,---,0.00,VWS V14.01,2013-03-17 15:56:00,
2013-03-17 09:02:00,70.7,32.2,29.88,South,180,0.0,0.0,24,0.00,,---,0.00,VWS V14.01,2013-03-17 16:02:00,
2013-03-17 09:07:00,71.1,32.5,29.88,SW,225,0.0,0.0,24,0.00,,---,0.00,VWS V14.01,2013-03-17 16:07:00,
2013-03-17 09:12:00,71.4,32.8,29.88,SW,225,0.0,0.0,24,0.00,,---,0.00,VWS V14.01,2013-03-17 16:12:00,
2013-03-17 09:17:00,72.0,32.2,29.88,SSE,158,0.0,0.0,23,0.00,,---,0.00,VWS V14.01,2013-03-17 16:17:00,
2013-03-17 09:22:00,72.5,32.6,29.88,SW,225,0.0,0.0,23,0.00,,---,0.00,VWS V14.01,2013-03-17 16:22:00,
2013-03-17 09:27:00,73.0,33.1,29.88,East,90,0.0,0.0,23,0.00,,---,0.00,VWS V14.01,2013-03-17 16:27:00,
2013-03-17 09:32:00,73.9,32.7,29.88,SSE,158,0.0,0.0,22,0.00,,---,0.00,VWS V14.01,2013-03-17 16:32:00,
2013-03-17 09:37:00,74.5,33.2,29.88,South,180,0.0,0.0,22,0.00,,---,0.00,VWS V14.01,2013-03-17 16:37:00,
2013-03-17 09:42:00,74.8,33.5,29.88,SW,225,0.0,0.9,22,0.00,,---,0.00,VWS V14.01,2013-03-17 16:42:00,
2013-03-17 09:47:00,75.4,33.9,29.88,SE,135,0.0,0.0,22,0.00,,---,0.00,VWS V14.01,2013-03-17 16:47:00,
2013-03-17 09:52:00,75.7,34.2,29.88,ESE,112,0.0,0.0,22,0.00,,---,0.00,VWS V14.01,2013-03-17 16:52:00,
2013-03-17 09:57:00,76.5,34.8,29.88,WSW,248,0.0,0.0,22,0.00,,---,0.00,VWS V14.01,2013-03-17 16:57:00,
2013-03-17 10:02:00,77.0,34.1,29.88,South,180,0.0,0.0,21,0.00,,---,0.00,VWS V14.01,2013-03-17 17:02:00,
2013-03-17 10:07:00,77.5,34.6,29.88,WSW,248,0.0,0.0,21,0.00,,---,0.00,VWS V14.01,2013-03-17 17:07:00,
2013-03-17 10:12:00,77.7,34.7,29.88,WSW,248,0.0,0.0,21,0.00,,---,0.00,VWS V14.01,2013-03-17 17:12:00,
2013-03-17 10:18:00,77.9,34.9,29.88,South,180,1.1,1.1,21,0.00,,---,0.00,VWS V14.01,2013-03-17 17:18:00,
2013-03-17 10:23:00,78.1,33.8,29.88,SSE,158,0.0,0.9,20,0.00,,---,0.00,VWS V14.01,2013-03-17 17:23:00,
2013-03-17 10:28:00,78.4,34.1,29.88,SW,225,0.0,0.0,20,0.00,,---,0.00,VWS V14.01,2013-03-17 17:28:00,
2013-03-17 10:33:00,78.8,34.4,29.88,SW,225,3.4,3.4,20,0.00,,---,0.00,VWS V14.01,2013-03-17 17:33:00,
2013-03-17 10:38:00,79.0,34.5,29.88,SSE,158,0.0,2.7,20,0.00,,---,0.00,VWS V14.01,2013-03-17 17:38:00,
2013-03-17 10:43:00,78.8,34.4,29.88,SW,225,2.2,2.2,20,0.00,,---,0.00,VWS V14.01,2013-03-17 17:43:00,
2013-03-17 10:48:00,79.2,34.7,29.88,SW,225,0.0,0.0,20,0.00,,---,0.00,VWS V14.01,2013-03-17 17:48:00,
2013-03-17 10:53:00,78.8,34.4,29.88,SW,225,0.0,2.0,20,0.00,,---,0.00,VWS V14.01,2013-03-17 17:53:00,
2013-03-17 10:58:00,79.2,34.7,29.88,SW,225,0.0,0.0,20,0.00,,---,0.00,VWS V14.01,2013-03-17 17:58:00,
2013-03-17 11:03:00,79.2,34.7,29.88,WSW,248,3.4,3.4,20,0.00,,---,0.00,VWS V14.01,2013-03-17 18:03:00,
2013-03-17 11:08:00,79.0,34.5,29.88,SW,225,0.0,3.1,20,0.00,,---,0.00,VWS V14.01,2013-03-17 18:08:00,
2013-03-17 11:13:00,79.3,34.8,29.85,SSW,202,1.6,1.6,20,0.00,,---,0.00,VWS V14.01,2013-03-17 18:13:00,
2013-03-17 11:18:00,79.7,35.1,29.85,SSW,202,2.9,2.9,20,0.00,,---,0.00,VWS V14.01,2013-03-17 18:18:00,
2013-03-17 11:23:00,80.1,35.4,29.85,SW,225,0.0,0.0,20,0.00,,---,0.00,VWS V14.01,2013-03-17 18:23:00,
2013-03-17 11:28:00,80.2,35.6,29.85,SSW,202,0.0,0.0,20,0.00,,---,0.00,VWS V14.01,2013-03-17 18:28:00,
2013-03-17 11:33:00,80.6,34.6,29.85,South,180,0.0,0.0,19,0.00,,---,0.00,VWS V14.01,2013-03-17 18:33:00,
2013-03-17 11:38:00,80.8,34.7,29.85,South,180,6.0,7.8,19,0.00,,---,0.00,VWS V14.01,2013-03-17 18:38:00,
2013-03-17 11:43:00,80.6,34.6,29.85,South,180,0.0,0.0,19,0.00,,---,0.00,VWS V14.01,2013-03-17 18:43:00,
2013-03-17 11:49:00,81.1,35.0,29.85,WSW,248,2.7,5.6,19,0.00,,---,0.00,VWS V14.01,2013-03-17 18:49:00,
2013-03-17 11:54:00,81.1,35.0,29.85,SSW,202,3.4,3.4,19,0.00,,---,0.00,VWS V14.01,2013-03-17 18:54:00,
2013-03-17 11:59:00,81.3,35.2,29.85,SW,225,3.6,4.3,19,0.00,,---,0.00,VWS V14.01,2013-03-17 18:59:00,
2013-03-17 12:04:00,81.3,35.2,29.85,SW,225,9.6,9.6,19,0.00,,---,0.00,VWS V14.01,2013-03-17 19:04:00,
2013-03-17 12:09:00,81.1,35.0,29.85,SSE,158,0.0,0.0,19,0.00,,---,0.00,VWS V14.01,2013-03-17 19:09:00,
2013-03-17 12:14:00,81.7,35.5,29.82,SW,225,3.6,3.6,19,0.00,,---,0.00,VWS V14.01,2013-03-17 19:14:00,
2013-03-17 12:19:00,81.9,35.6,29.82,SW,225,6.0,6.0,19,0.00,,---,0.00,VWS V14.01,2013-03-17 19:19:00,
2013-03-17 12:24:00,81.7,35.5,29.82,West,270,1.3,1.3,19,0.00,,---,0.00,VWS V14.01,2013-03-17 19:24:00,
2013-03-17 12:29:00,81.3,32.4,29.82,SW,225,2.5,9.6,17,0.00,,---,0.00,VWS V14.01,2013-03-17 19:29:00,
2013-03-17 12:34:00,81.5,32.5,29.82,SW,225,7.8,7.8,17,0.00,,---,0.00,VWS V14.01,2013-03-17 19:34:00,
2013-03-17 12:39:00,81.5,32.5,29.82,WSW,248,5.6,5.6,17,0.00,,---,0.00,VWS V14.01,2013-03-17 19:39:00,
2013-03-17 12:44:00,81.3,32.4,29.82,West,270,0.0,0.0,17,0.00,,---,0.00,VWS V14.01,2013-03-17 19:44:00,
2013-03-17 12:49:00,81.5,32.5,29.82,SW,225,6.9,6.9,17,0.00,,---,0.00,VWS V14.01,2013-03-17 19:49:00,
2013-03-17 12:55:00,81.5,32.5,29.82,SE,135,3.1,5.4,17,0.00,,---,0.00,VWS V14.01,2013-03-17 19:55:00,
2013-03-17 13:00:00,81.9,32.8,29.82,South,180,6.3,6.3,17,0.00,,---,0.00,VWS V14.01,2013-03-17 20:00:00,
2013-03-17 13:05:00,81.9,32.8,29.82,SW,225,6.0,6.3,17,0.00,,---,0.00,VWS V14.01,2013-03-17 20:05:00,
2013-03-17 13:10:00,81.9,32.8,29.82,WSW,248,2.7,3.6,17,0.00,,---,0.00,VWS V14.01,2013-03-17 20:10:00,
2013-03-17 13:15:00,82.2,33.1,29.82,South,180,1.1,2.9,17,0.00,,---,0.00,VWS V14.01,2013-03-17 20:15:00,
2013-03-17 13:20:00,82.2,33.1,29.82,South,180,0.0,1.3,17,0.00,,---,0.00,VWS V14.01,2013-03-17 20:20:00,
2013-03-17 13:25:00,82.4,31.8,29.82,SW,225,1.3,5.8,16,0.00,,---,0.00,VWS V14.01,2013-03-17 20:25:00,
2013-03-17 13:30:00,82.4,31.8,29.82,WSW,248,2.9,2.9,16,0.00,,---,0.00,VWS V14.01,2013-03-17 20:30:00,
2013-03-17 13:35:00,82.0,33.0,29.82,WNW,292,4.0,4.0,17,0.00,,---,0.00,VWS V14.01,2013-03-17 20:35:00,
2013-03-17 13:40:00,82.0,33.0,29.82,WSW,248,5.6,5.6,17,0.00,,---,0.00,VWS V14.01,2013-03-17 20:40:00,
2013-03-17 13:45:00,82.4,31.8,29.79,SW,225,1.1,1.1,16,0.00,,---,0.00,VWS V14.01,2013-03-17 20:45:00,
2013-03-17 13:50:00,82.4,31.8,29.79,SW,225,0.0,6.3,16,0.00,,---,0.00,VWS V14.01,2013-03-17 20:50:00,
2013-03-17 13:55:00,81.9,32.8,29.79,SW,225,6.9,6.9,17,0.00,,---,0.00,VWS V14.01,2013-03-17 20:55:00,
2013-03-17 14:00:00,82.2,33.1,29.79,West,270,0.0,2.5,17,0.00,,---,0.00,VWS V14.01,2013-03-17 21:00:00,
2013-03-17 14:05:00,82.2,33.1,29.79,SW,225,1.6,1.6,17,0.00,,---,0.00,VWS V14.01,2013-03-17 21:05:00,
2013-03-17 14:10:00,82.2,33.1,29.79,SSW,202,2.0,2.0,17,0.00,,---,0.00,VWS V14.01,2013-03-17 21:10:00,
2013-03-17 14:15:00,82.0,33.0,29.79,WSW,248,3.1,3.1,17,0.00,,---,0.00,VWS V14.01,2013-03-17 21:15:00,
2013-03-17 14:20:00,82.0,33.0,29.79,South,180,0.0,0.0,17,0.00,,---,0.00,VWS V14.01,2013-03-17 21:20:00,
2013-03-17 14:26:00,82.4,31.8,29.79,WSW,248,7.8,7.8,16,0.00,,---,0.00,VWS V14.01,2013-03-17 21:26:00,
2013-03-17 14:31:00,81.9,32.8,29.79,NNE,22,0.9,7.8,17,0.00,,---,0.00,VWS V14.01,2013-03-17 21:31:00,
2013-03-17 14:36:00,81.9,32.8,29.79,SSW,202,4.0,4.0,17,0.00,,---,0.00,VWS V14.01,2013-03-17 21:36:00,
2013-03-17 14:41:00,82.2,33.1,29.79,SW,225,0.0,4.9,17,0.00,,---,0.00,VWS V14.01,2013-03-17 21:41:00,
2013-03-17 14:46:00,82.2,33.1,29.79,South,180,5.8,6.5,17,0.00,,---,0.00,VWS V14.01,2013-03-17 21:46:00,
2013-03-17 14:51:00,82.4,31.8,29.79,SSW,202,6.0,6.0,16,0.00,,---,0.00,VWS V14.01,2013-03-17 21:51:00,
2013-03-17 14:56:00,82.4,31.8,29.79,WSW,248,5.8,5.8,16,0.00,,---,0.00,VWS V14.01,2013-03-17 21:56:00,
2013-03-17 15:01:00,82.6,31.9,29.79,SW,225,0.0,0.0,16,0.00,,---,0.00,VWS V14.01,2013-03-17 22:01:00,
2013-03-17 15:06:00,82.8,32.0,29.79,North,0,2.0,2.0,16,0.00,,---,0.00,VWS V14.01,2013-03-17 22:06:00,
2013-03-17 15:12:00,82.8,32.0,29.79,WNW,292,0.0,1.1,16,0.00,,---,0.00,VWS V14.01,2013-03-17 22:12:00,
2013-03-17 15:17:00,83.1,32.3,29.79,NNW,338,0.9,0.9,16,0.00,,---,0.00,VWS V14.01,2013-03-17 22:17:00,
2013-03-17 15:22:00,82.8,32.0,29.79,SSW,202,6.3,6.3,16,0.00,,---,0.00,VWS V14.01,2013-03-17 22:22:00,
2013-03-17 15:27:00,83.3,32.5,29.79,SW,225,0.0,0.0,16,0.00,,---,0.00,VWS V14.01,2013-03-17 22:27:00,
2013-03-17 15:32:00,83.3,32.5,29.79,East,90,0.0,0.0,16,0.00,,---,0.00,VWS V14.01,2013-03-17 22:32:00,
2013-03-17 15:37:00,83.3,32.5,29.79,NE,45,0.0,0.0,16,0.00,,---,0.00,VWS V14.01,2013-03-17 22:37:00,
2013-03-17 15:42:00,83.5,32.6,29.79,NW,315,1.1,1.1,16,0.00,,---,0.00,VWS V14.01,2013-03-17 22:42:00,
2013-03-17 15:47:00,82.9,32.2,29.79,SW,225,2.2,2.2,16,0.00,,---,0.00,VWS V14.01,2013-03-17 22:47:00,
2013-03-17 15:52:00,83.3,32.5,29.79,South,180,1.6,1.6,16,0.00,,---,0.00,VWS V14.01,2013-03-17 22:52:00,
2013-03-17 15:58:00,83.1,32.3,29.79,West,270,0.0,7.2,16,0.00,,---,0.00,VWS V14.01,2013-03-17 22:58:00,
2013-03-17 16:03:00,83.5,32.6,29.79,West,270,2.0,2.7,16,0.00,,---,0.00,VWS V14.01,2013-03-17 23:03:00,
2013-03-17 16:08:00,82.8,32.0,29.79,East,90,0.9,3.6,16,0.00,,---,0.00,VWS V14.01,2013-03-17 23:08:00,
2013-03-17 16:13:00,82.6,31.9,29.79,SW,225,4.3,4.3,16,0.00,,---,0.00,VWS V14.01,2013-03-17 23:13:00,
2013-03-17 16:18:00,82.8,32.0,29.79,SW,225,6.0,6.0,16,0.00,,---,0.00,VWS V14.01,2013-03-17 23:18:00,
2013-03-17 16:23:00,82.6,31.9,29.79,NNW,338,6.0,6.0,16,0.00,,---,0.00,VWS V14.01,2013-03-17 23:23:00,
2013-03-17 16:28:00,82.8,32.0,29.79,SSW,202,0.0,0.0,16,0.00,,---,0.00,VWS V14.01,2013-03-17 23:28:00,
2013-03-17 16:33:00,82.4,31.8,29.82,South,180,0.0,0.0,16,0.00,,---,0.00,VWS V14.01,2013-03-17 23:33:00,
2013-03-17 16:38:00,81.5,32.5,29.82,West,270,0.0,0.0,17,0.00,,---,0.00,VWS V14.01,2013-03-17 23:38:00,
2013-03-17 16:43:00,81.0,32.1,29.82,WNW,292,0.0,0.0,17,0.00,,---,0.00,VWS V14.01,2013-03-17 23:43:00,
2013-03-17 16:48:00,81.1,32.2,29.82,WSW,248,5.8,5.8,17,0.00,,---,0.00,VWS V14.01,2013-03-17 23:48:00,
2013-03-17 16:53:00,81.1,32.2,29.82,NW,315,0.0,0.0,17,0.00,,---,0.00,VWS V14.01,2013-03-17 23:53:00,
2013-03-17 16:58:00,80.4,31.7,29.82,West,270,0.0,0.0,17,0.00,,---,0.00,VWS V14.01,2013-03-17 23:58:00,
2013-03-17 17:03:00,79.7,31.1,29.82,SW,225,0.0,0.0,17,0.00,,---,0.00,VWS V14.01,2013-03-18 00:03:00,
2013-03-17 17:08:00,79.5,30.9,29.82,NNE,22,0.0,0.0,17,0.00,,---,0.00,VWS V14.01,2013-03-18 00:08:00,
2013-03-17 17:13:00,79.0,30.5,29.82,SSW,202,0.0,0.0,17,0.00,,---,0.00,VWS V14.01,2013-03-18 00:13:00,
2013-03-17 17:19:00,78.6,31.6,29.82,WSW,248,0.0,0.0,18,0.00,,---,0.00,VWS V14.01,2013-03-18 00:19:00,
2013-03-17 17:23:00,78.6,31.6,29.82,WNW,292,0.0,0.0,18,0.00,,---,0.00,VWS V14.01,2013-03-18 00:23:00,
2013-03-17 17:29:00,78.4,31.5,29.82,WNW,292,0.0,0.0,18,0.00,,---,0.00,VWS V14.01,2013-03-18 00:29:00,
2013-03-17 17:34:00,78.1,31.2,29.82,SSW,202,1.6,1.6,18,0.00,,---,0.00,VWS V14.01,2013-03-18 00:34:00,
2013-03-17 17:39:00,77.9,31.0,29.82,South,180,0.0,0.0,18,0.00,,---,0.00,VWS V14.01,2013-03-18 00:39:00,
2013-03-17 17:44:00,78.3,31.3,29.82,SW,225,0.0,0.0,18,0.00,,---,0.00,VWS V14.01,2013-03-18 00:44:00,
2013-03-17 17:49:00,78.3,31.3,29.82,East,90,0.0,0.0,18,0.00,,---,0.00,VWS V14.01,2013-03-18 00:49:00,
2013-03-17 17:54:00,78.3,31.3,29.82,WSW,248,1.1,1.1,18,0.00,,---,0.00,VWS V14.01,2013-03-18 00:54:00,
2013-03-17 17:59:00,77.7,30.9,29.82,NNW,338,0.0,0.0,18,0.00,,---,0.00,VWS V14.01,2013-03-18 00:59:00,
2013-03-17 18:04:00,77.0,30.3,29.82,North,0,0.0,0.0,18,0.00,,---,0.00,VWS V14.01,2013-03-18 01:04:00,
2013-03-17 18:09:00,76.5,29.9,29.82,NNW,338,0.0,0.0,18,0.00,,---,0.00,VWS V14.01,2013-03-18 01:09:00,
2013-03-17 18:14:00,75.7,29.3,29.82,NW,315,0.0,0.0,18,0.00,,---,0.00,VWS V14.01,2013-03-18 01:14:00,
2013-03-17 18:19:00,75.2,28.8,29.82,SW,225,0.0,0.0,18,0.00,,---,0.00,VWS V14.01,2013-03-18 01:19:00,
2013-03-17 18:24:00,75.0,28.7,29.82,WSW,248,0.0,0.0,18,0.00,,---,0.00,VWS V14.01,2013-03-18 01:24:00,
2013-03-17 18:29:00,74.3,28.1,29.82,WNW,292,0.0,0.0,18,0.00,,---,0.00,VWS V14.01,2013-03-18 01:29:00,
2013-03-17 18:34:00,73.6,27.5,29.82,West,270,0.0,0.0,18,0.00,,---,0.00,VWS V14.01,2013-03-18 01:34:00,
2013-03-17 18:39:00,73.0,28.4,29.82,West,270,0.0,0.0,19,0.00,,---,0.00,VWS V14.01,2013-03-18 01:39:00,
2013-03-17 18:44:00,72.3,27.8,29.82,WNW,292,0.0,0.0,19,0.00,,---,0.00,VWS V14.01,2013-03-18 01:44:00,
2013-03-17 18:49:00,71.8,27.3,29.82,WNW,292,0.0,0.0,19,0.00,,---,0.00,VWS V14.01,2013-03-18 01:49:00,
2013-03-17 18:54:00,71.1,26.8,29.82,WNW,292,0.0,0.0,19,0.00,,---,0.00,VWS V14.01,2013-03-18 01:54:00,
2013-03-17 18:59:00,70.7,26.5,29.82,WNW,292,0.0,0.0,19,0.00,,---,0.00,VWS V14.01,2013-03-18 01:59:00,
2013-03-17 19:04:00,69.8,25.7,29.82,WNW,292,0.0,0.0,19,0.00,,---,0.00,VWS V14.01,2013-03-18 02:04:00,
2013-03-17 19:09:00,69.1,26.4,29.82,WNW,292,0.0,0.0,20,0.00,,---,0.00,VWS V14.01,2013-03-18 02:09:00,
2013-03-17 19:14:00,68.5,25.9,29.82,WNW,292,0.0,0.0,20,0.00,,---,0.00,VWS V14.01,2013-03-18 02:14:00,
2013-03-17 19:19:00,68.0,25.5,29.82,WNW,292,0.0,0.0,20,0.00,,---,0.00,VWS V14.01,2013-03-18 02:19:00,
2013-03-17 19:25:00,67.5,25.0,29.82,WNW,292,0.0,0.0,20,0.00,,---,0.00,VWS V14.01,2013-03-18 02:25:00,
2013-03-17 19:30:00,67.3,27.2,29.82,WNW,292,0.0,0.0,22,0.00,,---,0.00,VWS V14.01,2013-03-18 02:30:00,
2013-03-17 19:35:00,66.9,26.9,29.82,WNW,292,0.0,0.0,22,0.00,,---,0.00,VWS V14.01,2013-03-18 02:35:00,
2013-03-17 19:40:00,66.6,26.6,29.82,NNW,338,0.0,0.0,22,0.00,,---,0.00,VWS V14.01,2013-03-18 02:40:00,
2013-03-17 19:45:00,66.4,26.4,29.85,NNW,338,0.0,0.0,22,0.00,,---,0.00,VWS V14.01,2013-03-18 02:45:00,
2013-03-17 19:50:00,66.2,26.3,29.85,NW,315,0.0,0.0,22,0.00,,---,0.00,VWS V14.01,2013-03-18 02:50:00,
2013-03-17 19:55:00,66.2,26.3,29.85,NW,315,0.0,0.0,22,0.00,,---,0.00,VWS V14.01,2013-03-18 02:55:00,
2013-03-17 20:00:00,66.2,26.3,29.85,NNW,338,0.0,0.0,22,0.00,,---,0.00,VWS V14.01,2013-03-18 03:00:00,
2013-03-17 20:05:00,66.2,26.3,29.85,NNW,338,0.0,0.0,22,0.00,,---,0.00,VWS V14.01,2013-03-18 03:05:00,
2013-03-17 20:10:00,65.8,27.0,29.85,NW,315,0.0,0.0,23,0.00,,---,0.00,VWS V14.01,2013-03-18 03:10:00,
2013-03-17 20:15:00,65.5,26.7,29.85,NW,315,0.0,0.0,23,0.00,,---,0.00,VWS V14.01,2013-03-18 03:15:00,
2013-03-17 20:20:00,65.5,26.7,29.85,North,0,0.0,0.0,23,0.00,,---,0.00,VWS V14.01,2013-03-18 03:20:00,
2013-03-17 20:25:00,64.9,26.3,29.85,ENE,68,0.0,0.0,23,0.00,,---,0.00,VWS V14.01,2013-03-18 03:25:00,
2013-03-17 20:30:00,64.6,26.0,29.85,NNE,22,0.0,0.0,23,0.00,,---,0.00,VWS V14.01,2013-03-18 03:30:00,
2013-03-17 20:35:00,64.4,25.8,29.85,NE,45,0.0,0.0,23,0.00,,---,0.00,VWS V14.01,2013-03-18 03:35:00,
2013-03-17 20:40:00,64.6,26.0,29.85,NNE,22,0.0,0.0,23,0.00,,---,0.00,VWS V14.01,2013-03-18 03:40:00,
2013-03-17 20:45:00,64.8,26.1,29.85,North,0,0.0,0.0,23,0.00,,---,0.00,VWS V14.01,2013-03-18 03:45:00,
2013-03-17 20:50:00,64.6,26.0,29.85,NNW,338,0.0,0.0,23,0.00,,---,0.00,VWS V14.01,2013-03-18 03:50:00,
2013-03-17 20:55:00,64.6,26.0,29.85,NNW,338,0.0,0.0,23,0.00,,---,0.00,VWS V14.01,2013-03-18 03:55:00,
2013-03-17 21:00:00,64.6,26.0,29.85,NNW,338,0.0,0.0,23,0.00,,---,0.00,VWS V14.01,2013-03-18 04:00:00,
2013-03-17 21:01:00,64.6,26.0,29.85,NW,315,0.0,0.0,23,0.00,,---,0.00,VWS V14.01,2013-03-18 04:01:00,
2013-03-17 21:06:00,64.6,26.0,29.85,NNW,338,0.0,0.0,23,0.00,,---,0.00,VWS V14.01,2013-03-18 04:06:00,
2013-03-17 21:11:00,64.6,26.0,29.85,NNW,338,0.0,0.0,23,0.00,,---,0.00,VWS V14.01,2013-03-18 04:11:00,
2013-03-17 21:16:00,64.8,26.1,29.88,NNW,338,0.0,0.0,23,0.00,,---,0.00,VWS V14.01,2013-03-18 04:16:00,
2013-03-17 21:21:00,64.8,26.1,29.88,NNW,338,0.0,0.0,23,0.00,,---,0.00,VWS V14.01,2013-03-18 04:21:00,
2013-03-17 21:26:00,64.8,26.1,29.88,NE,45,0.0,0.0,23,0.00,,---,0.00,VWS V14.01,2013-03-18 04:26:00,
2013-03-17 21:31:00,64.4,25.8,29.88,NE,45,0.0,0.0,23,0.00,,---,0.00,VWS V14.01,2013-03-18 04:31:00,
2013-03-17 21:37:00,64.2,26.7,29.88,NE,45,0.0,0.0,24,0.00,,---,0.00,VWS V14.01,2013-03-18 04:37:00,
2013-03-17 21:42:00,64.4,25.8,29.88,NNW,338,0.0,0.0,23,0.00,,---,0.00,VWS V14.01,2013-03-18 04:42:00,
2013-03-17 21:47:00,64.4,25.8,29.88,NNW,338,0.0,0.0,23,0.00,,---,0.00,VWS V14.01,2013-03-18 04:47:00,
2013-03-17 21:52:00,64.2,26.7,29.88,NE,45,0.0,0.0,24,0.00,,---,0.00,VWS V14.01,2013-03-18 04:52:00,
2013-03-17 21:57:00,64.4,25.8,29.88,NNW,338,0.0,0.0,23,0.00,,---,0.00,VWS V14.01,2013-03-18 04:57:00,
2013-03-17 22:02:00,64.2,26.7,29.88,NNW,338,0.0,0.0,24,0.00,,---,0.00,VWS V14.01,2013-03-18 05:02:00,
2013-03-17 22:07:00,64.0,26.5,29.88,North,0,0.0,0.0,24,0.00,,---,0.00,VWS V14.01,2013-03-18 05:07:00,
2013-03-17 22:12:00,64.2,26.7,29.88,NNW,338,0.0,0.0,24,0.00,,---,0.00,VWS V14.01,2013-03-18 05:12:00,
2013-03-17 22:17:00,64.0,26.5,29.88,NNW,338,0.0,0.0,24,0.00,,---,0.00,VWS V14.01,2013-03-18 05:17:00,
2013-03-17 22:22:00,63.5,26.1,29.88,NNW,338,0.0,0.0,24,0.00,,---,0.00,VWS V14.01,2013-03-18 05:22:00,
2013-03-17 22:27:00,62.8,25.5,29.88,NNW,338,0.0,0.0,24,0.00,,---,0.00,VWS V14.01,2013-03-18 05:27:00,
2013-03-17 22:32:00,62.6,25.3,29.88,NNW,338,0.0,0.0,24,0.00,,---,0.00,VWS V14.01,2013-03-18 05:32:00,
2013-03-17 22:37:00,62.2,26.0,29.88,NNW,338,0.0,0.0,25,0.00,,---,0.00,VWS V14.01,2013-03-18 05:37:00,
2013-03-17 22:42:00,62.1,25.9,29.88,NW,315,0.0,0.0,25,0.00,,---,0.00,VWS V14.01,2013-03-18 05:42:00,
2013-03-17 22:48:00,61.9,25.7,29.91,NNW,338,0.0,0.0,25,0.00,,---,0.00,VWS V14.01,2013-03-18 05:48:00,
2013-03-17 22:53:00,61.7,25.5,29.91,NNW,338,0.0,0.0,25,0.00,,---,0.00,VWS V14.01,2013-03-18 05:53:00,
2013-03-17 22:58:00,62.1,25.9,29.91,NNW,338,0.0,0.0,25,0.00,,---,0.00,VWS V14.01,2013-03-18 05:58:00,
2013-03-17 23:03:00,61.9,25.7,29.88,NW,315,0.0,0.0,25,0.00,,---,0.00,VWS V14.01,2013-03-18 06:03:00,
2013-03-17 23:08:00,61.5,25.4,29.88,NNW,338,0.0,0.0,25,0.00,,---,0.00,VWS V14.01,2013-03-18 06:08:00,
2013-03-17 23:13:00,61.2,25.1,29.88,NW,315,0.0,0.0,25,0.00,,---,0.00,VWS V14.01,2013-03-18 06:13:00,
2013-03-17 23:18:00,60.8,24.8,29.91,NNW,338,0.0,0.0,25,0.00,,---,0.00,VWS V14.01,2013-03-18 06:18:00,
2013-03-17 23:23:00,60.4,24.5,29.91,East,90,0.0,0.0,25,0.00,,---,0.00,VWS V14.01,2013-03-18 06:23:00,
2013-03-17 23:28:00,60.1,24.2,29.91,WNW,292,0.0,0.0,25,0.00,,---,0.00,VWS V14.01,2013-03-18 06:28:00,
2013-03-17 23:33:00,59.7,23.9,29.91,NW,315,0.0,0.0,25,0.00,,---,0.00,VWS V14.01,2013-03-18 06:33:00,
2013-03-17 23:38:00,59.4,23.6,29.91,NNW,338,0.0,0.0,25,0.00,,---,0.00,VWS V14.01,2013-03-18 06:38:00,
2013-03-17 23:43:00,59.0,23.2,29.91,NNW,338,0.0,0.0,25,0.00,,---,0.00,VWS V14.01,2013-03-18 06:43:00,
2013-03-17 23:48:00,58.8,24.0,29.91,NW,315,0.0,0.0,26,0.00,,---,0.00,VWS V14.01,2013-03-18 06:48:00,
2013-03-17 23:53:00,58.3,23.6,29.91,NNW,338,0.0,0.0,26,0.00,,---,0.00,VWS V14.01,2013-03-18 06:53:00,
2013-03-17 23:58:00,58.1,23.4,29.91,NW,315,0.0,0.0,26,0.00,,---,0.00,VWS V14.01,2013-03-18 06:58:00,